Weather History for KCCU - June, 2013

Change the Weather History Date:

Sunday, June 23, 2013

  Actual Average (KLXV) Record (KLXV)
Temperature  
Mean Temperature 52 °F -  
Max Temperature 60 °F 68 °F 79 °F (1990)
Min Temperature 44 °F 34 °F 27 °F (1991)
Degree Days  
Heating Degree Days 13 14  
Month to date heating degree days 388  
Since 1 June heating degree days 388  
Since 1 July heating degree days 11142  
Cooling Degree Days 0 0  
Month to date cooling degree days 0  
Year to date cooling degree days 0  
Since 1 June cooling degree days 0  
Growing Degree Days 2 (Base 50)    
Moisture  
Dew Point 15 °F    
Average Humidity 24    
Maximum Humidity 53    
Minimum Humidity 12    
Precipitation  
Precipitation 0.00 in 0.03 in 0.02 in (1988)
Month to date precipitation 0.69  
Year to date precipitation 4.82  
Sea Level Pressure  
Sea Level Pressure 30.41 in    
Wind  
Wind Speed 13 mph (SSW)    
Max Wind Speed 24 mph    
Max Gust Speed 40 mph    
Visibility 10 miles    
Events Rain , Thunderstorm    
T = Trace of Precipitation, MM = Missing Value Source: NWS Daily Summary

Daily Weather History Graph

Daily Weather History Graph

Search for Another Location

Airport or City:

Trip Planner

Search our weather history database for the weather conditions in past years. The results will help you decide how hot, cold, wet, or windy it might be!

Date:

Astronomy

Jun. 23, 2013 Rise Set
Actual Time 5:38 AM MDT 8:35 PM MDT
Civil Twilight 5:05 AM MDT 9:08 PM MDT
Nautical Twilight 4:24 AM MDT 9:49 PM MDT
Astronomical Twilight 3:36 AM MDT 10:36 PM MDT
Moon 8:50 PM MDT (6/23) 5:58 AM MDT (6/23)
Length of Visible Light 16h 02m
Length of Day
14h 57m
Full, 100% of the Moon is Illuminated
Jun 23
Full
Jun 29
Last Quarter
Jul 8
New
Jul 15
First Quarter
Jul 22
Full

Hourly Weather History & Observations

Time (MDT) Temp. Windchill Dew Point Humidity Pressure Visibility Wind Dir Wind Speed Gust Speed Precip Events Conditions
12:12 AM 48.2 °F - 10.4 °F 22% 30.42 in 10.0 mi WSW 11.5 mph 17.3 mph N/A   Clear
12:32 AM 48.2 °F - 8.6 °F 20% 30.42 in 10.0 mi WSW 15.0 mph 18.4 mph N/A   Clear
12:52 AM 46.4 °F 39.2 °F 10.4 °F 23% 30.43 in 10.0 mi West 18.4 mph - N/A   Clear
1:12 AM 46.4 °F 39.5 °F 8.6 °F 22% 30.43 in 10.0 mi West 17.3 mph - N/A   Clear
1:32 AM 44.6 °F 36.9 °F 10.4 °F 25% 30.42 in 10.0 mi West 18.4 mph - N/A   Clear
1:52 AM 44.6 °F 36.9 °F 12.2 °F 27% 30.42 in 10.0 mi West 18.4 mph - N/A   Clear
2:12 AM 46.4 °F 42.4 °F 12.2 °F 25% 30.42 in 10.0 mi WSW 8.1 mph - N/A   Clear
2:32 AM 46.4 °F 44.3 °F 12.2 °F 25% 30.42 in 10.0 mi SW 4.6 mph - N/A   Clear
2:52 AM 46.4 °F 42.4 °F 8.6 °F 22% 30.42 in 10.0 mi SSW 8.1 mph - N/A   Clear
3:12 AM 46.4 °F 42.4 °F 8.6 °F 22% 30.42 in 10.0 mi SSW 8.1 mph 16.1 mph N/A   Clear
3:32 AM 46.4 °F 41.9 °F 8.6 °F 22% 30.41 in 10.0 mi SSW 9.2 mph - N/A   Clear
3:52 AM 46.4 °F 42.9 °F 8.6 °F 22% 30.41 in 10.0 mi SSW 6.9 mph - N/A   Clear
4:12 AM 46.4 °F 41.9 °F 8.6 °F 22% 30.42 in 10.0 mi SSW 9.2 mph - N/A   Clear
4:32 AM 46.4 °F 40.7 °F 8.6 °F 22% 30.41 in 10.0 mi South 12.7 mph - N/A   Clear
4:52 AM 44.6 °F 38.4 °F 10.4 °F 25% 30.41 in 10.0 mi South 12.7 mph 16.1 mph N/A   Clear
5:12 AM 46.4 °F 41.1 °F 8.6 °F 22% 30.41 in 10.0 mi South 11.5 mph 17.3 mph N/A   Clear
5:32 AM 46.4 °F 41.9 °F 6.8 °F 20% 30.41 in 10.0 mi SSW 9.2 mph 17.3 mph N/A   Clear
5:52 AM 46.4 °F 39.8 °F 8.6 °F 22% 30.42 in 10.0 mi South 16.1 mph - N/A   Clear
6:12 AM 46.4 °F 39.8 °F 8.6 °F 22% 30.42 in 10.0 mi South 16.1 mph - N/A   Clear
6:21 AM 46.4 °F 39.5 °F 8.6 °F 22% 30.43 in 10.0 mi South 17.3 mph - N/A   Clear
8:12 AM 53.6 °F - 10.4 °F 18% 30.43 in 10.0 mi SSE 12.7 mph 20.7 mph N/A   Clear
8:32 AM 53.6 °F - 10.4 °F 18% 30.43 in 10.0 mi South 15.0 mph 20.7 mph N/A   Clear
8:52 AM 53.6 °F - 8.6 °F 16% 30.44 in 10.0 mi South 15.0 mph 24.2 mph N/A   Clear
9:12 AM 53.6 °F - 8.6 °F 16% 30.44 in 10.0 mi South 15.0 mph 23.0 mph N/A   Clear
9:32 AM 55.4 °F - 12.2 °F 18% 30.44 in 10.0 mi West 9.2 mph - N/A   Clear
9:52 AM 55.4 °F - 10.4 °F 17% 30.43 in 10.0 mi SSW 6.9 mph 21.9 mph N/A   Clear
10:12 AM 55.4 °F - 12.2 °F 18% 30.43 in 10.0 mi SSW 10.4 mph 20.7 mph N/A   Clear
10:32 AM 57.2 °F - 10.4 °F 16% 30.42 in 10.0 mi South 17.3 mph 25.3 mph N/A   Clear
10:52 AM 59.0 °F - 14.0 °F 17% 30.43 in 10.0 mi SSE 12.7 mph 19.6 mph N/A   Clear
11:12 AM 59.0 °F - 12.2 °F 16% 30.43 in 10.0 mi SSW 5.8 mph - N/A   Clear
11:32 AM 59.0 °F - 14.0 °F 17% 30.43 in 10.0 mi SW 12.7 mph 21.9 mph N/A   Mostly Cloudy
11:52 AM 59.0 °F - 12.2 °F 16% 30.42 in 10.0 mi South 9.2 mph - N/A   Overcast
12:12 PM 60.8 °F - 12.2 °F 15% 30.42 in 10.0 mi SW 5.8 mph 24.2 mph N/A   Mostly Cloudy
12:32 PM 59.0 °F - 12.2 °F 16% 30.42 in 10.0 mi SW 10.4 mph 18.4 mph N/A   Mostly Cloudy
12:52 PM 60.8 °F - 10.4 °F 14% 30.42 in 10.0 mi SW 10.4 mph 23.0 mph N/A   Mostly Cloudy
1:12 PM 60.8 °F - 14.0 °F 16% 30.41 in 10.0 mi WSW 5.8 mph 17.3 mph N/A   Mostly Cloudy
1:32 PM 59.0 °F - 8.6 °F 14% 30.41 in 10.0 mi South 11.5 mph 16.1 mph N/A   Mostly Cloudy
1:52 PM 60.8 °F - 8.6 °F 13% 30.40 in 10.0 mi WSW 19.6 mph 27.6 mph N/A   Mostly Cloudy
2:12 PM 59.0 °F - 5.0 °F 12% 30.41 in 10.0 mi South 10.4 mph 19.6 mph N/A   Mostly Cloudy
2:32 PM 59.0 °F - 10.4 °F 15% 30.41 in 10.0 mi SW 9.2 mph 25.3 mph N/A   Overcast
2:52 PM 59.0 °F - 10.4 °F 15% 30.40 in 10.0 mi West 17.3 mph 21.9 mph N/A   Overcast
3:12 PM 60.8 °F - 12.2 °F 15% 30.40 in 10.0 mi West 18.4 mph 24.2 mph N/A   Mostly Cloudy
3:32 PM 60.8 °F - 14.0 °F 16% 30.40 in 10.0 mi West 6.9 mph - N/A   Mostly Cloudy
3:52 PM 60.8 °F - 12.2 °F 15% 30.38 in 10.0 mi SW 10.4 mph - N/A   Mostly Cloudy
4:12 PM 59.0 °F - 14.0 °F 17% 30.38 in 10.0 mi West 19.6 mph 28.8 mph N/A   Mostly Cloudy
4:32 PM 59.0 °F - 12.2 °F 16% 30.38 in 10.0 mi West 16.1 mph 21.9 mph N/A   Mostly Cloudy
4:52 PM 57.2 °F - 17.6 °F 21% 30.39 in 10.0 mi SSE 24.2 mph 28.8 mph N/A Thunderstorm Thunderstorm
5:12 PM 53.6 °F - 19.4 °F 26% 30.40 in 10.0 mi SE 15.0 mph 40.3 mph N/A   Overcast
5:32 PM 53.6 °F - 19.4 °F 26% 30.40 in 10.0 mi South 12.7 mph - N/A   Overcast
5:52 PM 53.6 °F - 24.8 °F 33% 30.41 in 10.0 mi South 8.1 mph 36.8 mph N/A Rain Light Rain
6:12 PM 51.8 °F - 28.4 °F 41% 30.44 in 10.0 mi SSE 13.8 mph 21.9 mph N/A   Overcast
6:32 PM 46.4 °F 39.8 °F 30.2 °F 53% 30.40 in 10.0 mi WNW 16.1 mph 21.9 mph N/A   Overcast
6:52 PM 46.4 °F 40.7 °F 30.2 °F 53% 30.39 in 10.0 mi West 12.7 mph - N/A   Mostly Cloudy
7:12 PM 50.0 °F - 28.4 °F 43% 30.39 in 10.0 mi South 5.8 mph 9.2 mph N/A Thunderstorm Scattered Clouds
7:32 PM 50.0 °F - 30.2 °F 47% 30.40 in 10.0 mi SSE 5.8 mph - N/A Thunderstorm Scattered Clouds
7:52 PM 50.0 °F - 28.4 °F 43% 30.40 in 10.0 mi South 6.9 mph - N/A Thunderstorm Thunderstorm
8:12 PM 51.8 °F - 28.4 °F 41% 30.40 in 10.0 mi SSE 12.7 mph - N/A Thunderstorm Scattered Clouds
8:32 PM 51.8 °F - 23.0 °F 33% 30.40 in 10.0 mi South 12.7 mph - N/A Thunderstorm Mostly Cloudy
8:52 PM 53.6 °F - 23.0 °F 30% 30.40 in 10.0 mi South 13.8 mph - N/A Thunderstorm Mostly Cloudy
9:12 PM 53.6 °F - 23.0 °F 30% 30.39 in 10.0 mi South 17.3 mph - N/A   Scattered Clouds
9:32 PM 53.6 °F - 21.2 °F 28% 30.40 in 10.0 mi South 18.4 mph 24.2 mph N/A   Clear
9:52 PM 53.6 °F - 21.2 °F 28% 30.40 in 10.0 mi South 19.6 mph - N/A   Clear
10:12 PM 53.6 °F - 19.4 °F 26% 30.40 in 10.0 mi South 17.3 mph - N/A   Clear
10:32 PM 53.6 °F - 19.4 °F 26% 30.40 in 10.0 mi South 19.6 mph - N/A   Clear
10:52 PM 53.6 °F - 19.4 °F 26% 30.40 in 10.0 mi South 21.9 mph - N/A   Clear
11:12 PM 53.6 °F - 19.4 °F 26% 30.40 in 10.0 mi South 20.7 mph - N/A   Clear
11:32 PM 53.6 °F - 19.4 °F 26% 30.38 in 10.0 mi South 20.7 mph - N/A   Clear
11:52 PM 53.6 °F - 19.4 °F 26% 30.38 in 10.0 mi South 18.4 mph - N/A   Clear